Simultaneous Nadir Overpasses (SNOs) Predictions

Prediction of SNOs between GOES-16 and NOAA-19 Satellite Orbit:

Table of predicted SNOs for the next 14.0 days since TLE Epoch: 9/3/2022
Index Date Time (GOES-16) GOES-16 Lat,Lon NOAA-19 Lat,Lon Distance(km) Time Diff (sec)
1 09/04/2022 00:59:35 0.02, -75.20 -0.06, -75.55 39.70 80
2 09/05/2022 00:50:22 0.02, -75.20 0.60, -72.66 291.01 80
3 09/07/2022 13:08:13 -0.03, -75.22 0.50, -77.52 261.92 80
4 09/08/2022 12:59:01 -0.03, -75.23 -0.15, -74.62 69.29 80
5 09/09/2022 12:47:09 -0.03, -75.24 -0.85, -71.74 400.71 80
6 09/11/2022 01:19:32 0.03, -75.25 -0.97, -79.49 484.15 80
7 09/12/2022 01:07:40 0.02, -75.26 -0.30, -76.59 152.04 80
8 09/13/2022 00:53:08 0.02, -75.28 0.36, -73.70 180.32 80
9 09/15/2022 13:13:39 -0.02, -75.34 0.75, -78.56 368.96 80
10 09/16/2022 13:01:48 -0.02, -75.36 0.03, -75.68 36.41 80
